Location: The Rolnick Observatory
(41.1711°N, 73.3275°W)
Time: 22:02:00
(UTC-04:00)

N. Korean satellite - Pass Details

Date: 25 February 2019
Orbit: 455 x 511 km, 97.2° (Epoch: 18 March)

Event Time Altitude Azimuth Distance (km) Brightness Sun altitude
Rises 05:22:13 0° 26° (NNE) 2,488 10.5 -14.3°
Reaches altitude 10° 05:24:37 10° 43° (NE) 1,604 9.8 -13.8°
Maximum altitude 05:27:19 21° 95° (E) 1,064 9.4 -13.3°
Drops below altitude 10° 05:30:00 10° 147° (SSE) 1,590 9.6 -12.8°
Sets 05:32:22 0° 164° (SSE) 2,460 10.4 -12.4°
